Location: Newark
(45.8833°N, 13.5000°E)
Time: 04:21:43
(UTC+00:00)

X-37B - Pass Details

Date: 04 October 2020
Orbit: 382 x 392 km, 45.0° (Epoch: 15 October)

Event Time Altitude Azimuth Distance (km) Brightness Sun altitude
Rises 18:48:21 0° 250° (WSW) 2,260 5.3 -23.0°
Reaches altitude 10° 18:50:26 10° 246° (WSW) 1,405 4.0 -23.3°
Enters shadow 18:51:52 24° 238° (WSW) 851 2.7 -23.5°
